Home   Weather   Paris   Past weeks
Flag for USA

Past Weather in Paris, Maryland, USA — Yesterday and Last 2 Weeks

Now
58 °F

Light rain. Overcast.


Feels Like: 58 °F
Forecast: 68 / 53 °F
Wind: 5 mph from South

Location: Reagan National Airport

Current Time: Apr 6, 2020 at 2:18:12 am

Latest Report: Apr 6, 2020 at 1:52 am


Visibility: 10 mi

Pressure: 30.02 "Hg

Humidity: 81%

Dew Point: 52 °F

Location of ParisLocation

Past Weather in Paris — Graph

°F

Paris Temperature Yesterday

Maximum temperature yesterday: 68 °F (at 5:52 pm)
Minimum temperature yesterday: 47 °F (at 5:52 am)
Average temperature yesterday: 57 °F

High & Low Weather Summary for the Past Weeks

 TemperatureHumidityPressure
High75 °F (Mar 30, 3:52 pm)100% (Mar 30, 12:36 am)30.60 "Hg (Mar 30, 12:36 am)
Low40 °F (Mar 22, 7:52 am)21% (Mar 30, 3:52 pm)29.75 "Hg (Mar 29, 6:52 pm)
Average52 °F72%30.01 "Hg
* Reported Mar 22 12:52 am — Apr 6 12:52 am, Paris. Weather by CustomWeather, © 2020

Note: Actual official high and low records may vary slightly from our data, if they occured in-between our weather recording intervals... More about our weather records

Paris Weather History for the Previous 24 Hours

Scroll right to see more
 ConditionsComfort  
Time TempWeatherWind HumidityBarometerVisibility
12:52 am
Mon, Apr 6
58 °FPassing clouds.8 mph81%30.02 "Hg10 mi
11:52 pm
Sun, Apr 5
59 °FMostly cloudy.6 mph72%30.03 "Hg10 mi
10:52 pm61 °FMostly cloudy.3 mph67%30.03 "Hg10 mi
9:52 pm59 °FPartly cloudy.3 mph78%30.03 "Hg10 mi
8:52 pm62 °FOvercast.3 mph62%30.02 "Hg10 mi
7:52 pm65 °FOvercast.No wind54%30.01 "Hg10 mi
6:52 pm65 °FBroken clouds.6 mph56%30.01 "Hg10 mi
5:52 pm68 °FBroken clouds.6 mph49%30.00 "Hg10 mi
4:52 pm67 °FPartly sunny.5 mph51%30.01 "Hg10 mi
3:52 pm65 °FPartly sunny.7 mph56%30.02 "Hg10 mi
2:52 pm66 °FPartly sunny.7 mph50%30.04 "Hg10 mi
1:52 pm64 °FPartly sunny.8 mph56%30.06 "Hg10 mi
12:52 pm64 °FPartly sunny.12 mph52%30.09 "Hg10 mi
11:52 am60 °FPartly sunny.10 mph65%30.10 "Hg10 mi
10:52 am56 °FPartly sunny.7 mph75%30.11 "Hg10 mi
9:52 am53 °FPartly sunny.9 mph83%30.11 "Hg10 mi
8:52 am49 °FPartly sunny.8 mph93%30.11 "Hg10 mi
8:02 am49 °FScattered clouds.8 mph93%30.10 "Hg10 mi
6:52 am47 °FScattered clouds.7 mph93%30.09 "Hg10 mi
5:52 am47 °FPassing clouds.7 mph93%30.08 "Hg10 mi
4:52 am48 °FPassing clouds.7 mph89%30.07 "Hg10 mi
3:52 am49 °FPassing clouds.No wind90%30.07 "Hg10 mi
2:52 am50 °FPassing clouds.5 mph86%30.07 "Hg10 mi
Weather by CustomWeather, © 2020

See weather overview

Advertising